Regional Weather Roundup
Issued by NWS Newport/Morehead, NC

Current Version | Previous Version | Graphics & Text | Print | Product List | Glossary On
Versions: 1 2 3 4 5 6 7 8 9 10 11 12 13 14 15 16 17 18 19 20 21 22 23 24 25 26 27 28 29 30 31 32 33 34 35 36 37 38 39 40 41 42 43 44 45 46 47 48 49 50
000 ASUS42 KMHX 040413 RWRMHX WEATHER ROUNDUP FOR EASTERN NORTH CAROLINA NATIONAL WEATHER SERVICE NEWPORT/MOREHEAD CITY NC 1200 AM EDT SAT JUL 04 2015 NOTE: "FAIR" INDICATES FEW OR NO CLOUDS BELOW 12,000 FEET WITH NO SIGNIFICANT WEATHER AND/OR OBSTRUCTIONS TO VISIBILITY NCZ015>017-031-032-045>047-102-103-040500- NORTH COAST CITY SKY/WX TMP DP RH WIND PRES REMARKS EDENTON PTCLDY 75 73 91 S8 29.89F ELIZABETH CITY MOCLDY 75 73 94 S3 29.88F KITTY HAWK PTCLDY 76 73 91 SW3 29.88F MANTEO PTCLDY 76 74 93 SW10 29.89F $$ NCZ045>047-081-094-103-104-040500- CENTRAL COAST CITY SKY/WX TMP DP RH WIND PRES REMARKS FRISCO PTCLDY 77 74 90 SW10 29.91F SWANQUARTER N/A 79 N/A N/A SW13G20 29.85S $$ NCZ095-097-098-100-101-040500- SOUTHERN COAST CITY SKY/WX TMP DP RH WIND PRES REMARKS BEAUFORT PTCLDY 78 74 87 SW15 29.93S CEDAR ISLAND N/A 77 N/A N/A S10G20 29.94S JACKSONVILLE NOT AVBL PINEY ISLAND PTCLDY N/A N/A N/A SW13 29.91S WILMINGTON PTCLDY 76 69 79 SW13 29.96R $$ NCZ011>013-027>030-043-044-078>080-089-090>093-098-040500- COASTAL PLAIN CITY SKY/WX TMP DP RH WIND PRES REMARKS AHOSKIE MOCLDY N/A N/A N/A CALM 29.88F CLINTON PTCLDY 76 72 88 SW9G16 29.93S ELIZABETHTOWN PTCLDY 75 70 84 SW7 29.95S GOLDSBORO PTCLDY 75 74 96 SW7 29.89S GREENVILLE PTCLDY 73 73 100 SW7 29.92S HAVELOCK PTCLDY 75 72 90 SW10 29.93S KENANSVILLE CLOUDY 74 71 90 SW7 29.94R KINSTON PTCLDY 76 73 91 SW10 29.91F NEW BERN MOCLDY 75 72 90 SW7 29.93S RICHLANDS PTCLDY 73 66 78 SW10G16 29.94R ROCKY MOUNT PTCLDY 75 74 96 S6 29.89S FOG WASHINGTON PTCLDY 74 73 95 SW6 29.90S WHITEVILLE PTCLDY 74 70 87 SW8 29.97R $$ AMZ130-135-150-152-154-156-158-170-250-252-270-ANZ085-086-088-633-658-670-040500- MARINE OBSERVATIONS STATION/POSITION TIME TEMP WIND PRES WAVE SWELL AIR SEA DIR/SP/G HT/PER HT/PER (UTC) (F) (DEG/KT/KT) (MB) (FT/S) (FT/S) CHESAPEAKE LIGHT 0400 76 120/ 21/ 22 1011.9 64 E VA BEACH 0350 76 77 120/ 12/ 14 1012.3 4/ 8 3/ 8 DUCK 0300 76 76 140/ 8/ 9 1011.7 2 E DUCK 0311 77 N/A 2/ 8 OREGON INLET 0300 78 83 220/ 9/ 12 1012.6 13E OREGON INLT 0400 71 N/A 4/ 6 2/15 HATTERAS CG 0300 78 79 220/ 8/ 12 1012.8 DIAMOND BUOY 0350 80 81 220/ 21/ 25 1012.4 7/ 6 2/ 9 CAPE LOOKOUT 0400 79 240/ 17/ 23 1013.3 BEAUFORT LAB 0300 79 81 240/ 8/ 14 1012.7 30 SE NEW RVR IN 0308 80 80 250/ 23/ 31 1013.4 27 SE WRIGHTSVLE 0300 80 250/ 21/ 25 N/A 5 SE WRIGHTSVLE 0308 78 78 230/ 21/ 25 1014.2 225 S CAPE HAT 0350 81 80 230/ 14/ 16 1019.4 5/ 7 3/ 8 41 SE CHARLESTON 0350 83 81 210/ 17/ 19 1016.4 3/ 9 2/ 9 $$

USA.gov is the U.S. government's official web portal to all federal, state and local government web resources and services.